| time (UTC) | temp F | wind direction | speed MPH | gust MPH | rain 1hr in | rain 24hr in | rain mn in | humidity % | barometer mb |
| 20260508013021 | 68 | 205 | 1.0 | 5.0 | 0.00 | 0.00 | 0.00 | 57 | 1014.3 |
| 20260508012534 | 68 | 206 | 1.0 | 4.0 | 0.00 | 0.00 | 0.00 | 57 | 1014.3 |
| 20260508012022 | 68 | 208 | 0.0 | 5.0 | 0.00 | 0.00 | 0.00 | 57 | 1014.3 |
| 20260508011528 | 68 | 195 | 0.0 | 7.0 | 0.00 | 0.00 | 0.00 | 57 | 1014.3 |
| 20260508011046 | 68 | 196 | 0.0 | 7.0 | 0.00 | 0.00 | 0.00 | 56 | 1014.3 |
| 20260508010601 | 69 | 179 | 1.0 | 5.0 | 0.00 | 0.00 | 0.00 | 56 | 1014.4 |
| 20260508010024 | 69 | 197 | 1.0 | 6.0 | 0.00 | 0.00 | 0.00 | 55 | 1014.4 |
| 20260508005532 | 69 | 205 | 0.0 | 12.0 | 0.00 | 0.00 | 0.00 | 55 | 1014.5 |
| 20260508005020 | 69 | 193 | 6.0 | 12.0 | 0.00 | 0.00 | 0.00 | 55 | 1014.4 |
| 20260508004529 | 69 | 182 | 3.0 | 10.0 | 0.00 | 0.00 | 0.00 | 55 | 1014.4 |
| 20260508004041 | 70 | 180 | 1.0 | 10.0 | 0.00 | 0.00 | 0.00 | 55 | 1014.2 |
| 20260508003525 | 70 | 185 | 3.0 | 10.0 | 0.00 | 0.00 | 0.00 | 55 | 1014.1 |
| 20260508003028 | 70 | 164 | 0.0 | 10.0 | 0.00 | 0.00 | 0.00 | 55 | 1014.3 |
| 20260508002534 | 71 | 168 | 4.0 | 11.0 | 0.00 | 0.00 | 0.00 | 53 | 1014.3 |
| 20260508002023 | 72 | 132 | 5.0 | 11.0 | 0.00 | 0.00 | 0.00 | 50 | 1014.3 |
| 20260508001555 | 72 | 52 | 0.0 | 3.0 | 0.00 | 0.00 | 0.00 | 49 | 1014.4 |
| 20260508001037 | 72 | 39 | 0.0 | 3.0 | 0.00 | 0.00 | 0.00 | 46 | 1014.3 |
| 20260508000539 | 72 | 37 | 0.0 | 2.0 | 0.00 | 0.00 | 0.00 | 49 | 1014.4 |
| 20260508000046 | 72 | 37 | 0.0 | 0.0 | 0.00 | 0.00 | 0.00 | 51 | 1014.6 |
| 20260507235532 | 72 | 37 | 0.0 | 2.0 | 0.00 | 0.00 | 0.00 | 49 | 1014.5 |
| 20260507235039 | 72 | 37 | 0.0 | 2.0 | 0.00 | 0.00 | 0.00 | 49 | 1014.5 |
| 20260507234529 | 72 | 37 | 0.0 | 2.0 | 0.00 | 0.00 | 0.00 | 52 | 1014.5 |
| 20260507234106 | 73 | 37 | 0.0 | 0.0 | 0.00 | 0.00 | 0.00 | 49 | 1014.5 |
| 20260507233534 | 73 | 36 | 0.0 | 1.0 | 0.00 | 0.00 | 0.00 | 49 | 1014.5 |
| 20260507233025 | 73 | 37 | 0.0 | 1.0 | 0.00 | 0.00 | 0.00 | 50 | 1014.6 |
| 20260507232549 | 73 | 38 | 0.0 | 1.0 | 0.00 | 0.00 | 0.00 | 49 | 1014.5 |
| 20260507232058 | 73 | 37 | 0.0 | 1.0 | 0.00 | 0.00 | 0.00 | 48 | 1014.5 |
| 20260507231523 | 73 | 38 | 0.0 | 5.0 | 0.00 | 0.00 | 0.00 | 48 | 1014.5 |
| 20260507231032 | 73 | 37 | 0.0 | 5.0 | 0.00 | 0.00 | 0.00 | 48 | 1014.5 |
| 20260507230519 | 73 | 35 | 2.0 | 4.0 | 0.00 | 0.00 | 0.00 | 48 | 1014.5 |
| 20260507230029 | 73 | 33 | 0.0 | 4.0 | 0.00 | 0.00 | 0.00 | 48 | 1014.7 |
| 20260507225601 | 73 | 24 | 0.0 | 5.0 | 0.00 | 0.00 | 0.00 | 48 | 1014.8 |
| 20260507225027 | 73 | 24 | 0.0 | 5.0 | 0.00 | 0.00 | 0.00 | 47 | 1014.8 |
| 20260507224605 | 73 | 26 | 0.0 | 3.0 | 0.00 | 0.00 | 0.00 | 47 | 1014.8 |
| 20260507224028 | 73 | 22 | 0.0 | 3.0 | 0.00 | 0.00 | 0.00 | 47 | 1014.9 |
| 20260507223537 | 73 | 26 | 0.0 | 4.0 | 0.00 | 0.00 | 0.00 | 47 | 1014.9 |
| 20260507223108 | 73 | 25 | 0.0 | 4.0 | 0.00 | 0.00 | 0.00 | 47 | 1014.9 |
| 20260507222555 | 73 | 8 | 0.0 | 0.0 | 0.00 | 0.00 | 0.00 | 48 | 1014.9 |
| 20260507222042 | 73 | 7 | 0.0 | 5.0 | 0.00 | 0.00 | 0.00 | 49 | 1014.9 |
| 20260507221551 | 73 | 8 | 0.0 | 5.0 | 0.00 | 0.00 | 0.00 | 47 | 1015.0 |
| 20260507221038 | 73 | 356 | 2.0 | 5.0 | 0.00 | 0.00 | 0.00 | 46 | 1015.0 |
| 20260507220526 | 74 | 40 | 0.0 | 4.0 | 0.00 | 0.00 | 0.00 | 46 | 1015.0 |
| 20260507220032 | 74 | 41 | 1.0 | 4.0 | 0.00 | 0.00 | 0.00 | 46 | 1015.0 |
| 20260507215541 | 74 | 39 | 1.0 | 5.0 | 0.00 | 0.00 | 0.00 | 46 | 1015.0 |
| 20260507215029 | 73 | 43 | 0.0 | 5.0 | 0.00 | 0.00 | 0.00 | 45 | 1015.1 |
| 20260507214551 | 73 | 14 | 0.0 | 3.0 | 0.00 | 0.00 | 0.00 | 46 | 1015.1 |
| 20260507214038 | 74 | 16 | 0.0 | 5.0 | 0.00 | 0.00 | 0.00 | 45 | 1015.1 |
| 20260507213526 | 74 | 18 | 0.0 | 5.0 | 0.00 | 0.00 | 0.00 | 45 | 1015.3 |
| 20260507213032 | 74 | 358 | 0.0 | 2.0 | 0.00 | 0.00 | 0.00 | 45 | 1015.2 |
| 20260507212555 | 74 | 357 | 0.0 | 4.0 | 0.00 | 0.00 | 0.00 | 46 | 1015.4 |
| 20260507212036 | 74 | 356 | 0.0 | 4.0 | 0.00 | 0.00 | 0.00 | 44 | 1015.4 |
| 20260507211538 | 74 | 350 | 0.0 | 4.0 | 0.00 | 0.00 | 0.00 | 43 | 1015.4 |
| 20260507211023 | 75 | 349 | 1.0 | 4.0 | 0.00 | 0.00 | 0.00 | 42 | 1015.5 |
| 20260507210530 | 75 | 35 | 0.0 | 5.0 | 0.00 | 0.00 | 0.00 | 42 | 1015.7 |
| 20260507210037 | 76 | 44 | 1.0 | 6.0 | 0.00 | 0.00 | 0.00 | 41 | 1015.7 |
| 20260507205524 | 75 | 56 | 2.0 | 6.0 | 0.00 | 0.00 | 0.00 | 41 | 1015.7 |
| 20260507205030 | 75 | 81 | 0.0 | 9.0 | 0.00 | 0.00 | 0.00 | 42 | 1015.7 |
| 20260507204533 | 75 | 72 | 0.0 | 11.0 | 0.00 | 0.00 | 0.00 | 41 | 1015.7 |
| 20260507204033 | 75 | 69 | 5.0 | 11.0 | 0.00 | 0.00 | 0.00 | 42 | 1015.7 |
| 20260507203540 | 75 | 50 | 4.0 | 11.0 | 0.00 | 0.00 | 0.00 | 42 | 1015.6 |
| 20260507203053 | 75 | 56 | 6.0 | 11.0 | 0.00 | 0.00 | 0.00 | 43 | 1015.5 |
| 20260507202540 | 74 | 10 | 0.0 | 8.0 | 0.00 | 0.00 | 0.00 | 41 | 1015.6 |
| 20260507202027 | 75 | 16 | 2.0 | 8.0 | 0.00 | 0.00 | 0.00 | 42 | 1015.8 |
| 20260507201538 | 75 | 83 | 0.0 | 9.0 | 0.00 | 0.00 | 0.00 | 42 | 1016.0 |
| 20260507201043 | 75 | 97 | 6.0 | 9.0 | 0.00 | 0.00 | 0.00 | 42 | 1016.0 |
| 20260507200536 | 75 | 318 | 0.0 | 11.0 | 0.00 | 0.00 | 0.00 | 41 | 1016.1 |
| 20260507200024 | 76 | 63 | 0.0 | 11.0 | 0.00 | 0.00 | 0.00 | 40 | 1016.2 |
| 20260507195601 | 75 | 82 | 2.0 | 11.0 | 0.00 | 0.00 | 0.00 | 43 | 1016.2 |
| 20260507195047 | 75 | 46 | 4.0 | 11.0 | 0.00 | 0.00 | 0.00 | 42 | 1016.2 |
| 20260507194529 | 75 | 58 | 0.0 | 10.0 | 0.00 | 0.00 | 0.00 | 42 | 1016.3 |
| 20260507194039 | 74 | 43 | 6.0 | 10.0 | 0.00 | 0.00 | 0.00 | 43 | 1016.4 |
| 20260507193538 | 74 | 62 | 2.0 | 10.0 | 0.00 | 0.00 | 0.00 | 41 | 1016.5 |
| 20260507193046 | 74 | 304 | 1.0 | 7.0 | 0.00 | 0.00 | 0.00 | 44 | 1016.7 |
| 20260507192553 | 74 | 347 | 1.0 | 7.0 | 0.00 | 0.00 | 0.00 | 43 | 1016.8 |
| 20260507192022 | 74 | 60 | 2.0 | 11.0 | 0.00 | 0.00 | 0.00 | 42 | 1016.8 |
| 20260507191557 | 74 | 62 | 1.0 | 11.0 | 0.00 | 0.00 | 0.00 | 42 | 1016.8 |
| 20260507191025 | 73 | 357 | 0.0 | 12.0 | 0.00 | 0.00 | 0.00 | 44 | 1016.8 |
| 20260507190533 | 73 | 48 | 3.0 | 12.0 | 0.00 | 0.00 | 0.00 | 41 | 1016.9 |
| 20260507190029 | 73 | 45 | 1.0 | 9.0 | 0.00 | 0.00 | 0.00 | 42 | 1017.1 |
| 20260507185534 | 73 | 4 | 2.0 | 9.0 | 0.00 | 0.00 | 0.00 | 43 | 1017.2 |
| 20260507185022 | 73 | 56 | 3.0 | 10.0 | 0.00 | 0.00 | 0.00 | 42 | 1017.2 |
| 20260507184528 | 73 | 18 | 1.0 | 11.0 | 0.00 | 0.00 | 0.00 | 46 | 1017.2 |
| 20260507184038 | 72 | 349 | 4.0 | 14.0 | 0.00 | 0.00 | 0.00 | 43 | 1017.2 |
| 20260507183523 | 72 | 79 | 10.0 | 15.0 | 0.00 | 0.00 | 0.00 | 45 | 1017.3 |
| 20260507183031 | 72 | 58 | 4.0 | 15.0 | 0.00 | 0.00 | 0.00 | 46 | 1017.3 |
| 20260507182520 | 71 | 11 | 3.0 | 10.0 | 0.00 | 0.00 | 0.00 | 46 | 1017.2 |
| 20260507182043 | 73 | 36 | 5.0 | 14.0 | 0.00 | 0.00 | 0.00 | 45 | 1017.4 |
| 20260507181526 | 72 | 63 | 5.0 | 14.0 | 0.00 | 0.00 | 0.00 | 52 | 1017.4 |
| 20260507181040 | 71 | 41 | 3.0 | 11.0 | 0.00 | 0.00 | 0.00 | 46 | 1017.4 |
| 20260507180524 | 71 | 341 | 1.0 | 10.0 | 0.00 | 0.00 | 0.00 | 46 | 1017.5 |
| 20260507180032 | 71 | 19 | 4.0 | 10.0 | 0.00 | 0.00 | 0.00 | 47 | 1017.7 |
| 20260507175525 | 71 | 25 | 4.0 | 10.0 | 0.00 | 0.00 | 0.00 | 48 | 1017.7 |
| 20260507175032 | 71 | 13 | 4.0 | 15.0 | 0.00 | 0.00 | 0.00 | 46 | 1017.8 |
| 20260507174521 | 70 | 29 | 7.0 | 15.0 | 0.00 | 0.00 | 0.00 | 47 | 1017.9 |
| 20260507174101 | 70 | 16 | 1.0 | 12.0 | 0.00 | 0.00 | 0.00 | 50 | 1018.0 |
| 20260507173528 | 70 | 45 | 1.0 | 12.0 | 0.00 | 0.00 | 0.00 | 50 | 1018.2 |
| 20260507173039 | 70 | 1 | 6.0 | 12.0 | 0.00 | 0.00 | 0.00 | 48 | 1018.3 |
| 20260507172523 | 69 | 343 | 1.0 | 12.0 | 0.00 | 0.00 | 0.00 | 49 | 1018.4 |
| 20260507172026 | 69 | 358 | 3.0 | 7.0 | 0.00 | 0.00 | 0.00 | 52 | 1018.5 |
| 20260507171529 | 69 | 6 | 3.0 | 7.0 | 0.00 | 0.00 | 0.00 | 51 | 1018.8 |
| 20260507171039 | 68 | 351 | 0.0 | 10.0 | 0.00 | 0.00 | 0.00 | 51 | 1018.9 |
| 20260507170542 | 69 | 92 | 0.0 | 10.0 | 0.00 | 0.00 | 0.00 | 52 | 1019.2 |
| 20260507170026 | 68 | 60 | 2.0 | 6.0 | 0.00 | 0.00 | 0.00 | 54 | 1019.3 |
| 20260507165529 | 68 | 324 | 1.0 | 5.0 | 0.00 | 0.00 | 0.00 | 52 | 1019.3 |
| 20260507165033 | 68 | 81 | 0.0 | 7.0 | 0.00 | 0.00 | 0.00 | 55 | 1019.3 |
| 20260507164524 | 68 | 82 | 5.0 | 7.0 | 0.00 | 0.00 | 0.00 | 53 | 1019.4 |
| 20260507164033 | 68 | 340 | 1.0 | 11.0 | 0.00 | 0.00 | 0.00 | 52 | 1019.4 |
| 20260507163541 | 68 | 81 | 3.0 | 11.0 | 0.00 | 0.00 | 0.00 | 53 | 1019.4 |
| 20260507163043 | 67 | 35 | 4.0 | 11.0 | 0.00 | 0.00 | 0.00 | 52 | 1019.4 |
| 20260507162551 | 67 | 8 | 1.0 | 11.0 | 0.00 | 0.00 | 0.00 | 51 | 1019.4 |
| 20260507162033 | 67 | 50 | 4.0 | 7.0 | 0.00 | 0.00 | 0.00 | 55 | 1019.4 |
| 20260507161538 | 67 | 54 | 1.0 | 5.0 | 0.00 | 0.00 | 0.00 | 56 | 1019.4 |
| 20260507161044 | 67 | 77 | 1.0 | 12.0 | 0.00 | 0.00 | 0.00 | 56 | 1019.4 |
| 20260507160529 | 66 | 73 | 0.0 | 12.0 | 0.00 | 0.00 | 0.00 | 56 | 1019.4 |
| 20260507160032 | 66 | 61 | 5.0 | 12.0 | 0.00 | 0.00 | 0.00 | 56 | 1019.4 |
| 20260507155535 | 66 | 73 | 8.0 | 12.0 | 0.00 | 0.00 | 0.00 | 57 | 1019.5 |
| 20260507155039 | 66 | 2 | 2.0 | 6.0 | 0.00 | 0.00 | 0.00 | 57 | 1019.5 |
| 20260507154527 | 65 | 60 | 0.0 | 7.0 | 0.00 | 0.04 | 0.00 | 60 | 1019.5 |
| 20260507154032 | 65 | 59 | 2.0 | 9.0 | 0.00 | 0.04 | 0.00 | 59 | 1019.6 |
| 20260507153538 | 64 | 31 | 2.0 | 10.0 | 0.00 | 0.04 | 0.00 | 61 | 1019.7 |
| 20260507153025 | 64 | 66 | 0.0 | 10.0 | 0.00 | 0.04 | 0.00 | 61 | 1019.6 |
| 20260507152527 | 64 | 58 | 0.0 | 5.0 | 0.00 | 0.04 | 0.00 | 63 | 1019.7 |
| 20260507152036 | 64 | 68 | 1.0 | 9.0 | 0.00 | 0.04 | 0.00 | 63 | 1019.8 |
| 20260507151523 | 63 | 35 | 5.0 | 9.0 | 0.00 | 0.04 | 0.00 | 63 | 1019.9 |
| 20260507151028 | 63 | 67 | 0.0 | 7.0 | 0.00 | 0.04 | 0.00 | 64 | 1019.9 |
| 20260507150532 | 62 | 40 | 4.0 | 7.0 | 0.00 | 0.04 | 0.00 | 67 | 1020.0 |
| 20260507150037 | 62 | 37 | 0.0 | 6.0 | 0.00 | 0.04 | 0.00 | 68 | 1020.0 |
| 20260507145539 | 61 | 4 | 0.0 | 3.0 | 0.00 | 0.04 | 0.00 | 70 | 1020.0 |
| 20260507145037 | 60 | 4 | 0.0 | 4.0 | 0.00 | 0.04 | 0.00 | 70 | 1020.0 |
| 20260507144524 | 60 | 352 | 1.0 | 5.0 | 0.00 | 0.04 | 0.00 | 71 | 1020.1 |
| 20260507144102 | 60 | 19 | 1.0 | 5.0 | 0.00 | 0.04 | 0.00 | 71 | 1020.1 |
| 20260507143528 | 60 | 17 | 0.0 | 4.0 | 0.00 | 0.04 | 0.00 | 72 | 1020.1 |
| 20260507143040 | 60 | 16 | 0.0 | 4.0 | 0.00 | 0.04 | 0.00 | 72 | 1020.1 |
| 20260507142528 | 60 | 333 | 0.0 | 4.0 | 0.00 | 0.04 | 0.00 | 74 | 1020.2 |
| 20260507142033 | 59 | 9 | 0.0 | 4.0 | 0.00 | 0.04 | 0.00 | 73 | 1020.2 |
| 20260507141531 | 59 | 351 | 0.0 | 3.0 | 0.00 | 0.04 | 0.00 | 73 | 1020.3 |
| 20260507141034 | 59 | 351 | 1.0 | 3.0 | 0.00 | 0.04 | 0.00 | 73 | 1020.2 |
| 20260507140541 | 58 | 351 | 0.0 | 3.0 | 0.00 | 0.04 | 0.00 | 75 | 1020.3 |
| 20260507140026 | 58 | 351 | 0.0 | 3.0 | 0.00 | 0.04 | 0.00 | 75 | 1020.3 |
| 20260507135537 | 57 | 349 | 1.0 | 3.0 | 0.00 | 0.04 | 0.00 | 76 | 1020.3 |
| 20260507135038 | 57 | 10 | 0.0 | 0.0 | 0.00 | 0.04 | 0.00 | 77 | 1020.5 |
| 20260507134547 | 56 | 10 | 0.0 | 3.0 | 0.00 | 0.04 | 0.00 | 78 | 1020.5 |
| 20260507134029 | 55 | 6 | 0.0 | 3.0 | 0.00 | 0.04 | 0.00 | 78 | 1020.4 |
| 20260507133559 | 55 | 358 | 0.0 | 1.0 | 0.00 | 0.04 | 0.00 | 78 | 1020.5 |
| 20260507133026 | 55 | 4 | 0.0 | 1.0 | 0.00 | 0.04 | 0.00 | 78 | 1020.4 |
| 20260507132532 | 55 | 6 | 0.0 | 0.0 | 0.00 | 0.04 | 0.00 | 79 | 1020.5 |
| 20260507132036 | 55 | 7 | 0.0 | 0.0 | 0.00 | 0.04 | 0.00 | 80 | 1020.6 |
| 20260507131547 | 54 | 7 | 0.0 | 0.0 | 0.00 | 0.04 | 0.00 | 81 | 1020.5 |
| 20260507131032 | 54 | 7 | 0.0 | 0.0 | 0.00 | 0.04 | 0.00 | 82 | 1020.4 |
| 20260507130534 | 54 | 6 | 0.0 | 0.0 | 0.00 | 0.04 | 0.00 | 83 | 1020.5 |
| 20260507130039 | 53 | 6 | 0.0 | 0.0 | 0.00 | 0.04 | 0.00 | 84 | 1020.4 |
| 20260507125545 | 53 | 6 | 0.0 | 0.0 | 0.00 | 0.04 | 0.00 | 84 | 1020.3 |
| 20260507125023 | 53 | 6 | 0.0 | 0.0 | 0.00 | 0.04 | 0.00 | 85 | 1020.3 |
| 20260507124537 | 53 | 6 | 0.0 | 0.0 | 0.00 | 0.04 | 0.00 | 84 | 1020.2 |
| 20260507124024 | 52 | 6 | 0.0 | 0.0 | 0.00 | 0.04 | 0.00 | 85 | 1020.2 |
| 20260507123531 | 52 | 6 | 0.0 | 0.0 | 0.00 | 0.04 | 0.00 | 85 | 1020.0 |
| 20260507123102 | 52 | 6 | 0.0 | 0.0 | 0.00 | 0.04 | 0.00 | 85 | 1020.1 |
| 20260507122526 | 52 | 6 | 0.0 | 0.0 | 0.00 | 0.04 | 0.00 | 85 | 1020.1 |
| 20260507122100 | 52 | 6 | 0.0 | 0.0 | 0.00 | 0.04 | 0.00 | 85 | 1020.0 |
| 20260507121526 | 52 | 6 | 0.0 | 0.0 | 0.00 | 0.04 | 0.00 | 85 | 1020.1 |
| 20260507121033 | 51 | 6 | 0.0 | 0.0 | 0.00 | 0.04 | 0.00 | 85 | 1020.0 |
| 20260507120536 | 51 | 6 | 0.0 | 0.0 | 0.00 | 0.04 | 0.00 | 85 | 1019.9 |
| 20260507120023 | 51 | 6 | 0.0 | 0.0 | 0.00 | 0.04 | 0.00 | 85 | 1019.7 |
| 20260507115609 | 51 | 6 | 0.0 | 0.0 | 0.00 | 0.04 | 0.00 | 85 | 1019.6 |
| 20260507115054 | 51 | 6 | 0.0 | 0.0 | 0.00 | 0.04 | 0.00 | 85 | 1019.6 |
| 20260507114540 | 51 | 6 | 0.0 | 0.0 | 0.00 | 0.04 | 0.00 | 85 | 1019.6 |
| 20260507114030 | 51 | 6 | 0.0 | 0.0 | 0.00 | 0.04 | 0.00 | 85 | 1019.5 |
| 20260507113539 | 51 | 6 | 0.0 | 0.0 | 0.00 | 0.04 | 0.00 | 85 | 1019.4 |
| 20260507113027 | 51 | 6 | 0.0 | 0.0 | 0.00 | 0.04 | 0.00 | 85 | 1019.5 |
| 20260507112532 | 51 | 6 | 0.0 | 0.0 | 0.00 | 0.04 | 0.00 | 85 | 1019.3 |
| 20260507112033 | 51 | 6 | 0.0 | 0.0 | 0.00 | 0.04 | 0.00 | 85 | 1019.5 |
| 20260507111537 | 51 | 6 | 0.0 | 0.0 | 0.00 | 0.04 | 0.00 | 85 | 1019.6 |
| 20260507111045 | 51 | 6 | 0.0 | 0.0 | 0.00 | 0.04 | 0.00 | 86 | 1019.8 |
| 20260507110528 | 51 | 6 | 0.0 | 0.0 | 0.00 | 0.04 | 0.00 | 86 | 1019.7 |
| 20260507110105 | 51 | 6 | 0.0 | 0.0 | 0.00 | 0.04 | 0.00 | 85 | 1019.6 |
| 20260507105552 | 51 | 6 | 0.0 | 0.0 | 0.00 | 0.04 | 0.00 | 86 | 1019.7 |
| 20260507105034 | 51 | 6 | 0.0 | 0.0 | 0.00 | 0.04 | 0.00 | 86 | 1019.5 |
| 20260507104523 | 51 | 7 | 0.0 | 0.0 | 0.00 | 0.04 | 0.00 | 85 | 1019.4 |
| 20260507104029 | 51 | 7 | 0.0 | 0.0 | 0.00 | 0.04 | 0.00 | 85 | 1019.3 |
| 20260507103536 | 51 | 7 | 0.0 | 0.0 | 0.00 | 0.04 | 0.00 | 85 | 1019.3 |
| 20260507103028 | 51 | 7 | 0.0 | 0.0 | 0.00 | 0.04 | 0.00 | 85 | 1019.2 |
| 20260507102537 | 52 | 7 | 0.0 | 0.0 | 0.00 | 0.04 | 0.00 | 88 | 1019.1 |
| 20260507102026 | 52 | 7 | 0.0 | 0.0 | 0.00 | 0.04 | 0.00 | 85 | 1018.9 |
| 20260507101538 | 52 | 7 | 0.0 | 0.0 | 0.00 | 0.04 | 0.00 | 85 | 1018.9 |
| 20260507101044 | 52 | 7 | 0.0 | 0.0 | 0.00 | 0.04 | 0.00 | 85 | 1018.7 |
| 20260507100528 | 52 | 7 | 0.0 | 0.0 | 0.00 | 0.04 | 0.00 | 85 | 1018.6 |
| 20260507100103 | 52 | 7 | 0.0 | 0.0 | 0.00 | 0.04 | 0.00 | 84 | 1018.6 |
| 20260507095556 | 52 | 7 | 0.0 | 0.0 | 0.00 | 0.04 | 0.00 | 84 | 1018.5 |
| 20260507095041 | 52 | 7 | 0.0 | 0.0 | 0.00 | 0.04 | 0.00 | 84 | 1018.5 |
| 20260507094543 | 52 | 7 | 0.0 | 0.0 | 0.00 | 0.04 | 0.00 | 84 | 1018.3 |
| 20260507094049 | 52 | 7 | 0.0 | 0.0 | 0.00 | 0.04 | 0.00 | 84 | 1018.2 |
| 20260507093536 | 52 | 7 | 0.0 | 0.0 | 0.00 | 0.04 | 0.00 | 84 | 1018.2 |
| 20260507093022 | 52 | 7 | 0.0 | 0.0 | 0.00 | 0.04 | 0.00 | 84 | 1018.0 |
| 20260507092556 | 52 | 7 | 0.0 | 0.0 | 0.00 | 0.04 | 0.00 | 84 | 1017.8 |
| 20260507092024 | 52 | 7 | 0.0 | 0.0 | 0.00 | 0.04 | 0.00 | 83 | 1017.7 |
| 20260507091537 | 52 | 7 | 0.0 | 0.0 | 0.00 | 0.04 | 0.00 | 83 | 1017.7 |
| 20260507091026 | 52 | 7 | 0.0 | 0.0 | 0.00 | 0.04 | 0.00 | 83 | 1017.6 |
| 20260507090545 | 52 | 8 | 0.0 | 0.0 | 0.00 | 0.04 | 0.00 | 83 | 1017.5 |
| 20260507090032 | 53 | 8 | 0.0 | 0.0 | 0.00 | 0.04 | 0.00 | 82 | 1017.6 |
| 20260507085537 | 53 | 8 | 0.0 | 0.0 | 0.00 | 0.04 | 0.00 | 82 | 1017.6 |
| 20260507085027 | 53 | 8 | 0.0 | 0.0 | 0.00 | 0.04 | 0.00 | 82 | 1017.8 |
| 20260507084535 | 53 | 8 | 0.0 | 0.0 | 0.00 | 0.04 | 0.00 | 82 | 1017.9 |
| 20260507084023 | 53 | 8 | 0.0 | 0.0 | 0.00 | 0.04 | 0.00 | 82 | 1017.8 |
| 20260507083556 | 53 | 8 | 0.0 | 0.0 | 0.00 | 0.04 | 0.00 | 82 | 1017.9 |
| 20260507083039 | 53 | 8 | 0.0 | 0.0 | 0.00 | 0.04 | 0.00 | 81 | 1017.8 |
| 20260507082523 | 53 | 8 | 0.0 | 0.0 | 0.00 | 0.04 | 0.00 | 81 | 1017.9 |
| 20260507082031 | 53 | 8 | 0.0 | 0.0 | 0.00 | 0.04 | 0.00 | 81 | 1017.7 |
| 20260507081537 | 53 | 8 | 0.0 | 0.0 | 0.00 | 0.04 | 0.00 | 80 | 1017.9 |
| 20260507081023 | 54 | 8 | 0.0 | 0.0 | 0.00 | 0.04 | 0.00 | 80 | 1017.9 |
| 20260507080526 | 54 | 8 | 0.0 | 0.0 | 0.00 | 0.04 | 0.00 | 80 | 1017.9 |
| 20260507075523 | 54 | 7 | 0.0 | 0.0 | 0.00 | 0.04 | 0.00 | 80 | 1017.7 |
| 20260507075100 | 54 | 7 | 0.0 | 0.0 | 0.00 | 0.04 | 0.00 | 80 | 1017.6 |
| 20260507074547 | 54 | 7 | 0.0 | 0.0 | 0.00 | 0.04 | 0.00 | 80 | 1017.5 |
| 20260507074052 | 54 | 7 | 0.0 | 0.0 | 0.00 | 0.04 | 0.00 | 80 | 1017.4 |
| 20260507073544 | 54 | 4 | 0.0 | 0.0 | 0.00 | 0.04 | 0.00 | 80 | 1017.4 |
| 20260507073030 | 54 | 1 | 0.0 | 3.0 | 0.00 | 0.04 | 0.00 | 79 | 1017.4 |
| 20260507072540 | 54 | 1 | 1.0 | 3.0 | 0.00 | 0.04 | 0.00 | 80 | 1017.4 |
| 20260507072042 | 54 | 12 | 0.0 | 3.0 | 0.00 | 0.04 | 0.00 | 80 | 1017.4 |
| 20260507071548 | 54 | 18 | 0.0 | 3.0 | 0.00 | 0.04 | 0.00 | 79 | 1017.3 |
| 20260507071028 | 54 | 20 | 0.0 | 3.0 | 0.00 | 0.04 | 0.00 | 79 | 1017.2 |
| 20260507070538 | 55 | 18 | 0.0 | 2.0 | 0.00 | 0.04 | 0.00 | 80 | 1017.3 |
| 20260507070026 | 55 | 18 | 0.0 | 2.0 | 0.00 | 0.04 | 0.00 | 79 | 1017.3 |
| 20260507065553 | 55 | 21 | 0.0 | 5.0 | 0.00 | 0.04 | 0.00 | 79 | 1017.3 |
| 20260507065101 | 55 | 20 | 1.0 | 5.0 | 0.00 | 0.04 | 0.00 | 79 | 1017.2 |
| 20260507064526 | 55 | 54 | 0.0 | 2.0 | 0.00 | 0.04 | 0.00 | 79 | 1017.3 |
| 20260507064103 | 55 | 54 | 0.0 | 4.0 | 0.00 | 0.04 | 0.00 | 79 | 1017.2 |
| 20260507063526 | 55 | 56 | 0.0 | 4.0 | 0.00 | 0.04 | 0.00 | 78 | 1017.3 |
| 20260507063028 | 55 | 60 | 0.0 | 1.0 | 0.00 | 0.04 | 0.00 | 78 | 1017.2 |
| 20260507062602 | 55 | 61 | 0.0 | 0.0 | 0.00 | 0.04 | 0.00 | 78 | 1017.3 |
| 20260507062044 | 55 | 62 | 0.0 | 0.0 | 0.00 | 0.04 | 0.00 | 78 | 1017.3 |
| 20260507061530 | 55 | 62 | 0.0 | 0.0 | 0.00 | 0.04 | 0.00 | 78 | 1017.1 |
| 20260507061041 | 55 | 62 | 0.0 | 0.0 | 0.00 | 0.04 | 0.00 | 78 | 1017.0 |
| 20260507060527 | 56 | 62 | 0.0 | 0.0 | 0.00 | 0.04 | 0.00 | 77 | 1017.0 |
| 20260507060040 | 56 | 62 | 0.0 | 0.0 | 0.00 | 0.04 | 0.00 | 77 | 1017.0 |
| 20260507055534 | 56 | 62 | 0.0 | 0.0 | 0.00 | 0.04 | 0.04 | 77 | 1017.0 |
| 20260507055022 | 56 | 62 | 0.0 | 0.0 | 0.00 | 0.04 | 0.04 | 77 | 1017.0 |
| 20260507054526 | 56 | 62 | 0.0 | 1.0 | 0.00 | 0.04 | 0.04 | 77 | 1017.0 |
| 20260507054034 | 56 | 62 | 0.0 | 1.0 | 0.00 | 0.04 | 0.04 | 76 | 1016.9 |
| 20260507053520 | 56 | 63 | 0.0 | 1.0 | 0.00 | 0.04 | 0.04 | 76 | 1016.9 |
| 20260507053031 | 56 | 63 | 0.0 | 0.0 | 0.00 | 0.04 | 0.04 | 76 | 1017.0 |
| 20260507052539 | 56 | 64 | 0.0 | 0.0 | 0.00 | 0.04 | 0.04 | 76 | 1016.8 |
| 20260507052028 | 56 | 65 | 0.0 | 0.0 | 0.00 | 0.04 | 0.04 | 75 | 1016.9 |
| 20260507051535 | 57 | 66 | 0.0 | 0.0 | 0.00 | 0.04 | 0.04 | 75 | 1016.8 |
| 20260507051021 | 57 | 66 | 0.0 | 4.0 | 0.00 | 0.04 | 0.04 | 75 | 1016.8 |
| 20260507050525 | 57 | 69 | 0.0 | 6.0 | 0.00 | 0.04 | 0.04 | 74 | 1016.8 |
| 20260507050030 | 57 | 55 | 1.0 | 6.0 | 0.00 | 0.04 | 0.04 | 74 | 1016.8 |
| 20260507045520 | 57 | 60 | 0.0 | 5.0 | 0.00 | 0.04 | 0.04 | 73 | 1016.9 |
| 20260507045032 | 58 | 60 | 1.0 | 6.0 | 0.00 | 0.04 | 0.04 | 73 | 1016.9 |
| 20260507044542 | 58 | 65 | 0.0 | 6.0 | 0.00 | 0.04 | 0.04 | 73 | 1016.9 |
| 20260507044052 | 58 | 58 | 0.0 | 5.0 | 0.00 | 0.04 | 0.04 | 72 | 1017.0 |
| 20260507043602 | 58 | 58 | 0.0 | 10.0 | 0.00 | 0.04 | 0.04 | 72 | 1017.0 |
| 20260507043045 | 58 | 60 | 0.0 | 10.0 | 0.00 | 0.04 | 0.04 | 71 | 1016.9 |
| 20260507042530 | 58 | 71 | 4.0 | 12.0 | 0.00 | 0.04 | 0.04 | 71 | 1017.1 |
| 20260507042035 | 59 | 60 | 3.0 | 12.0 | 0.00 | 0.04 | 0.04 | 71 | 1017.1 |
| 20260507041524 | 59 | 70 | 1.0 | 12.0 | 0.00 | 0.04 | 0.04 | 70 | 1017.1 |
| 20260507041030 | 59 | 57 | 5.0 | 13.0 | 0.00 | 0.04 | 0.04 | 70 | 1017.1 |
| 20260507040537 | 59 | 79 | 7.0 | 13.0 | 0.00 | 0.04 | 0.04 | 70 | 1017.1 |
| 20260507040020 | 59 | 73 | 1.0 | 10.0 | 0.00 | 0.04 | 0.04 | 70 | 1017.1 |
| 20260507035522 | 60 | 42 | 0.0 | 15.0 | 0.00 | 0.04 | 0.04 | 69 | 1017.2 |
| 20260507035034 | 60 | 60 | 6.0 | 15.0 | 0.00 | 0.04 | 0.04 | 70 | 1017.2 |
| 20260507034524 | 60 | 67 | 10.0 | 15.0 | 0.00 | 0.04 | 0.04 | 70 | 1017.0 |
| 20260507034032 | 60 | 81 | 0.0 | 10.0 | 0.00 | 0.04 | 0.04 | 70 | 1017.1 |
| 20260507033524 | 60 | 47 | 0.0 | 12.0 | 0.00 | 0.04 | 0.04 | 70 | 1017.2 |
| 20260507033027 | 60 | 52 | 7.0 | 12.0 | 0.00 | 0.04 | 0.04 | 69 | 1017.2 |
| 20260507032531 | 60 | 61 | 1.0 | 11.0 | 0.00 | 0.04 | 0.04 | 69 | 1017.1 |
| 20260507032103 | 60 | 56 | 5.0 | 11.0 | 0.00 | 0.04 | 0.04 | 69 | 1017.1 |
| 20260507031547 | 60 | 27 | 4.0 | 9.0 | 0.00 | 0.04 | 0.04 | 69 | 1017.1 |
| 20260507031040 | 60 | 45 | 4.0 | 9.0 | 0.00 | 0.04 | 0.04 | 69 | 1017.1 |
| 20260507030527 | 60 | 41 | 3.0 | 12.0 | 0.00 | 0.04 | 0.04 | 69 | 1017.1 |
| 20260507030032 | 60 | 63 | 3.0 | 13.0 | 0.00 | 0.04 | 0.04 | 68 | 1017.1 |
| 20260507025536 | 60 | 9 | 7.0 | 14.0 | 0.00 | 0.04 | 0.04 | 68 | 1016.9 |
| 20260507025020 | 61 | 54 | 2.0 | 18.0 | 0.00 | 0.04 | 0.04 | 68 | 1016.8 |
| 20260507024531 | 61 | 37 | 6.0 | 11.0 | 0.00 | 0.04 | 0.04 | 68 | 1016.7 |
| 20260507024036 | 61 | 32 | 7.0 | 11.0 | 0.00 | 0.04 | 0.04 | 69 | 1016.6 |
| 20260507023523 | 61 | 27 | 2.0 | 14.0 | 0.00 | 0.04 | 0.04 | 69 | 1016.4 |
| 20260507023028 | 61 | 14 | 6.0 | 14.0 | 0.00 | 0.04 | 0.04 | 69 | 1016.4 |
| 20260507022532 | 62 | 21 | 6.0 | 12.0 | 0.00 | 0.04 | 0.04 | 70 | 1016.3 |
| 20260507022038 | 62 | 61 | 3.0 | 12.0 | 0.00 | 0.04 | 0.04 | 70 | 1016.1 |
| 20260507021526 | 62 | 24 | 3.0 | 12.0 | 0.00 | 0.04 | 0.04 | 70 | 1016.0 |
| 20260507021024 | 62 | 3 | 0.0 | 5.0 | 0.00 | 0.04 | 0.04 | 71 | 1016.0 |
| 20260507020537 | 62 | 54 | 0.0 | 6.0 | 0.00 | 0.04 | 0.04 | 71 | 1015.9 |
| 20260507020041 | 62 | 58 | 1.0 | 12.0 | 0.00 | 0.04 | 0.04 | 70 | 1015.8 |
| 20260507015526 | 62 | 60 | 0.0 | 12.0 | 0.00 | 0.04 | 0.04 | 70 | 1015.6 |
| 20260507015034 | 62 | 54 | 3.0 | 12.0 | 0.00 | 0.04 | 0.04 | 70 | 1015.6 |
| 20260507014541 | 62 | 54 | 3.0 | 9.0 | 0.00 | 0.04 | 0.04 | 69 | 1015.5 |
| 20260507014024 | 62 | 60 | 0.0 | 11.0 | 0.00 | 0.04 | 0.04 | 69 | 1015.3 |
| 20260507013524 | 62 | 64 | 5.0 | 11.0 | 0.00 | 0.04 | 0.04 | 69 | 1015.2 |